Regional Weather Roundup
Issued by NWS

Home | Current Version | Previous Version | Graphics & Text | Print | Product List | Glossary Off
Versions: 1 2 3 4 5 6 7 8 9 10 11 12 13 14 15 16 17 18 19 20 21 22 23 24 25 26 27 28 29 30 31 32 33 34 35 36 37 38 39 40 41 42 43 44 45 46 47 48 49 50

654
ASUS43 KMKX 270000
RWRWI

WISCONSIN REGIONAL WEATHER ROUNDUP
NATIONAL WEATHER SERVICE MILWAUKEE/SULLIVAN WI
700 PM CDT MON JUN 26 2017

NOTE: "FAIR" INDICATES FEW OR NO CLOUDS BELOW 12,000 FEET WITH NO
SIGNIFICANT WEATHER AND/OR OBSTRUCTIONS TO VISIBILITY.

WIZ001-002-006>008-014>016-023>028-270100-
NORTHWEST WISCONSIN

CITY           SKY/WX    TMP DP  RH WIND       PRES   REMARKS
SUPERIOR ARPT  NOT AVBL
ASHLAND        PTSUNNY   62  48  60 W8        30.05F
6HR MIN TEMP:  57; 6HR MAX TEMP:  69; 6HR PCP:  0.01;

HAYWARD        CLOUDY    64  48  56 VRB3      30.07F
6HR MIN TEMP:  56; 6HR MAX TEMP:  66; 6HR PCP:  0.11;

SIREN          LGT RAIN  62  47  57 E9G16     30.09R
CUMBERLAND     PTSUNNY   61  45  55 NW8       30.11R
RICE LAKE      PTSUNNY   63  46  53 N13       30.12R
CHETEK         PTSUNNY   65  48  54 NW5       30.09F
LADYSMITH      MOSUNNY   61  48  62 NW6       30.09F
EAU CLAIRE     MOSUNNY   65  47  52 NW9       30.08F
6HR MIN TEMP:  56; 6HR MAX TEMP:  70; 6HR PCP:  0.04;

MENOMONIE      MOSUNNY   63  46  53 NW8       30.10F
6HR MIN TEMP:  62; 6HR MAX TEMP:  69;

NEW RICHMOND   PTSUNNY   64  46  51 W3        30.11F
OSCEOLA        PTSUNNY   66  45  46 CALM      30.13F
$$

WIZ003>005-009-010-017-018-270100-
NORTH CENTRAL WISCONSIN

CITY           SKY/WX    TMP DP  RH WIND       PRES   REMARKS
MANITOWISH WTR MOSUNNY   63  44  50 NW13      30.04S THUNDER
ARBOR VITAE    MOSUNNY   62  44  52 N7        30.04R
WOODRUFF       MOSUNNY   62  44  52 N7        30.04R
RHINELANDER    SUNNY     62  42  47 VRB6      30.04F
6HR MIN TEMP:  53; 6HR MAX TEMP:  64;

EAGLE RIVER    MOSUNNY   62  39  43 NW8       30.03S
LAND O LAKES   SUNNY     62  40  45 NW7       30.05S
6HR MIN TEMP:  53; 6HR MAX TEMP:  64;

PHILLIPS       MOSUNNY   59  49  69 SW3       30.06S THUNDER
TOMAHAWK       NOT AVBL
MEDFORD        MOSUNNY   59  48  66 W6        30.07F
MERRILL        MOSUNNY   65  44  47 NW8       30.05S
6HR MIN TEMP:  54; 6HR MAX TEMP:  65;

$$

WIZ029-030-035-036-043>047-270100-
CENTRAL WISCONSIN

CITY           SKY/WX    TMP DP  RH WIND       PRES   REMARKS
WAUSAU         MOSUNNY   63  43  48 NW5       30.03F
6HR MIN TEMP:  54; 6HR MAX TEMP:  65; 6HR PCP: TRACE;

MOSINEE        NOT AVBL
MARSHFIELD     LGT RAIN  60  47  61 NW10G22   30.06S
6HR MIN TEMP:  56; 6HR MAX TEMP:  65; 6HR PCP: TRACE;

STEVENS POINT  SUNNY     62  42  47 N9        30.06S
WAUPACA        SUNNY     66  43  43 N7        30.05S
6HR MIN TEMP:  59; 6HR MAX TEMP:  67; 6HR PCP:  0.01;

WAUTOMA        SUNNY     64  45  49 N7        30.06S
6HR MIN TEMP:  57; 6HR MAX TEMP:  65;

WISC RAPIDS    SUNNY     66  46  48 NW7       30.07S
6HR MIN TEMP:  58; 6HR MAX TEMP:  67;

CAMP DOUGLAS   NOT AVBL
$$

WIZ011>013-019>022-031-037>040-048>050-270100-
NORTHEAST WISCONSIN

CITY           SKY/WX    TMP DP  RH WIND       PRES   REMARKS
ANTIGO         MOSUNNY   60  45  57 N7        30.05S
SHAWANO        PTSUNNY   64  47  53 N6        30.04S
OCONTO         MOSUNNY   58  53  82 NW3       30.02S
STURGEON BAY     N/A     58  50  75 NW9         N/A
6HR MIN TEMP:  54; 6HR MAX TEMP:  60;

GREEN BAY      CLOUDY    59  56  89 NW7       30.04S
6HR MIN TEMP:  53; 6HR MAX TEMP:  63; 6HR PCP:  0.33;

MANITOWOC      NOT AVBL
APPLETON       PTSUNNY   57  46  67 N8        30.03S
CLINTONVILLE   MOSUNNY   63  43  48 N7        30.04S
OSHKOSH        CLOUDY    61  47  59 N9        30.04S
6HR MIN TEMP:  57; 6HR MAX TEMP:  63; 6HR PCP:  0.01;

$$

WIZ032>034-041-042-053>061-270100-
SOUTHWEST WISCONSIN

CITY           SKY/WX    TMP DP  RH WIND       PRES   REMARKS
LA CROSSE      SUNNY     70  45  40 NW12      30.08R
6HR MIN TEMP:  68; 6HR MAX TEMP:  75;

SPARTA         SUNNY     67  43  41 NW10      30.08S
VIROQUA        SUNNY     65  44  46 NW10G17   30.09S
BOSCOBEL       MOSUNNY   70  43  37 NW10      30.08S
6HR MIN TEMP:  66; 6HR MAX TEMP:  71;

PRAIRIE DU CHI SUNNY     68  39  34 NW7       30.08S
PLATTEVILLE    MOSUNNY   68  42  39 N14       30.08S
$$

WIZ056-057-062-063-064-067-068-270100-
SOUTH CENTRAL WISCONSIN

CITY           SKY/WX    TMP DP  RH WIND       PRES   REMARKS
REEDSBURG      SUNNY     64  46  52 N9        30.07S
BARABOO/DELLS  MOSUNNY   64  42  45 N7        30.07S
LONE ROCK      NOT AVBL
MINERAL POINT  SUNNY     66  41  39 NW13      30.08S
MADISON        MOSUNNY   64  45  49 NW10      30.06S
6HR MIN TEMP:  60; 6HR MAX TEMP:  65; 6HR PCP: TRACE;

MIDDLETON      MOSUNNY   65  45  48 NW13      30.07S
WATERTOWN      NOT AVBL
MONROE         MOSUNNY   64  43  45 N10G20    30.07S
JANESVILLE     MOSUNNY   66  43  42 NW8       30.06R
$$

WIZ051-052-058>065-066-070>072-270100-
SOUTHEAST WISCONSIN

CITY           SKY/WX    TMP DP  RH WIND       PRES   REMARKS
MILWAUKEE      MOSUNNY   65  44  46 NW13      30.03S
6HR MIN TEMP:  61; 6HR MAX TEMP:  69; 6HR PCP: TRACE;

WAUKESHA       MOSUNNY   61  45  55 NW15      30.05S
MILWAUKEE/TIMM MOSUNNY   63  41  45 NW15      30.04S
RACINE         SUNNY     64  43  46 NW14      30.05R
6HR MIN TEMP:  60; 6HR MAX TEMP:  69; 6HR PCP: TRACE;

KENOSHA        PTSUNNY   63  45  51 NW12G21   30.04S
6HR MIN TEMP:  61; 6HR MAX TEMP:  69; 6HR PCP: TRACE;

FOND DU LAC    PTSUNNY   61  46  57 N9        30.05S
6HR MIN TEMP:  57; 6HR MAX TEMP:  64; 6HR PCP: TRACE;

SHEBOYGAN      MOSUNNY   58  53  84 NW13      30.02S
6HR MIN TEMP:  54; 6HR MAX TEMP:  63; 6HR PCP:  0.04;

WEST BEND      RAIN      55  50  82 NW16G30   30.04R
JUNEAU         PTSUNNY   63  45  52 NW10G16   30.05F
$$

LSZ147-162-270100-
LAKE SUPERIOR

STATION/POSITION TIME  TEMP    WIND        PRES    WAVE
                       AIR SEA DIR/SP/G            HT/PER
                 (UTC) (F)     (DEG/KT/KT) (MB)    (FT/S)
W MID LAKE BUOY  2250   49 39  300/  8/ 10 1017.5R   1/ 3
DEVILS ISLAND    2300   56     230/ 12/ 14 1016.8F
PORT WING        2309   61     260/  7/ 35 1018.3
SAXON HARBOR     2340   63     270/  5/  8 1016.9S
$$

LMZ867-665-643>646-270100-
LAKE MICHIGAN

STATION/POSITION TIME  TEMP    WIND        PRES    WAVE
                       AIR SEA DIR/SP/G            HT/PER
                 (UTC) (F)     (DEG/KT/KT) (MB)    (FT/S)
CHAMBERS ISLAND  2340   62     280/  3/  6 1015.6S
S GREEN BAY BUOY 2330   59     330/ 10/ 12 1016.4R
N MID LAKE BUOY  2250   56 56  330/ 14/ 16 1015.8R   2/ 4
NORTHPORT PIER   2340   60     330/  5/  8 1015.9R
KEWAUNEE LAKESHO 2330   58     350/  8/ 12 1016.0R
SHEBOYGAN LAKESH 2300   58     320/ 17/ 20 1016.5R
PORT WASHINGTON  2330   64     300/  7/ 17 1017.3S
ATWATER BUOY     2209   61 56  300/ 14/ 19 1016.6F
MILWAUKEE LAKESH 2330   63     300/  9/ 12   N/A
S MID LAKE BUOY  2250   60 61  340/ 16/ 17 1016.5F   3/ 5
KENOSHA   LAKESH 2300   63     310/ 18/ 22 1016.6
$$

TC  - TEMPERATURE IN CELSIUS
VSB - VISIBILITY IN STATUTE MILES
WCI - WIND CHILL INDEX
HX  - HEAT INDEX





USA.gov is the U.S. government's official web portal to all federal, state and local government web resources and services.